This is the latest recevied weather packets stored in our database for station/object WX4FUN-13. If no packets are shown the sender has not sent any weather packets the latest 10 day(s).
| Time | Temp. | Humidity | Pressure | Rain* | Wind** | Luminosity | Snow |
|---|---|---|---|---|---|---|---|
| 1777640441 | 12.22° C | 56% | 1012.5 hPa | 0 mm | - | 578 W/m² | - |
| 1777639841 | 10.56° C | 64% | 1012.4 hPa | 0 mm | - | 499 W/m² | - |
| 1777639238 | 10.56° C | 62% | 1012.3 hPa | 0 mm | - | 201 W/m² | - |
| 1777638637 | 10° C | 65% | 1012.4 hPa | 0 mm | - | 414 W/m² | - |
| 1777638038 | 8.89° C | 71% | 1012.3 hPa | 0 mm | - | 382 W/m² | - |
| 1777637425 | 9.44° C | 69% | 1012.3 hPa | 0 mm | - | 95 W/m² | - |
| 1777636822 | 9.44° C | 70% | 1012.4 hPa | 0 mm | - | 341 W/m² | - |
| 1777636223 | 8.33° C | 73% | 1012.3 hPa | 0 mm | - | 142 W/m² | - |
| 1777635623 | 7.22° C | 79% | 1012.3 hPa | 0 mm | - | 259 W/m² | - |
| 1777635021 | 6.67° C | 84% | 1012.2 hPa | 0 mm | - | 105 W/m² | - |
| 1777634422 | 5.56° C | 86% | 1012.1 hPa | 0 mm | - | 57 W/m² | - |
| 1777633809 | 5.56° C | 88% | 1011.9 hPa | 0 mm | - | 69 W/m² | - |
| 1777633209 | 5° C | 88% | 1011.9 hPa | 0 mm | - | 55 W/m² | - |
| 1777632609 | 5° C | 88% | 1011.7 hPa | 0 mm | - | 35 W/m² | - |
| 1777632008 | 5° C | 88% | 1011.6 hPa | 0 mm | - | 29 W/m² | - |
| 1777631409 | 5° C | 89% | 1011.4 hPa | 0 mm | - | 27 W/m² | - |
| 1777630809 | 4.44° C | 89% | 1011.3 hPa | 0 mm | - | 18 W/m² | - |
| 1777630197 | 4.44° C | 89% | 1011.2 hPa | 0 mm | - | 12 W/m² | - |
| 1777629597 | 4.44° C | 89% | 1011.1 hPa | 0 mm | - | 5 W/m² | - |
| 1777628996 | 4.44° C | 89% | 1011 hPa | 0 mm | - | 3 W/m² | - |
| 1777628396 | 4.44° C | 88% | 1010.9 hPa | 0 mm | - | 0 W/m² | - |
| 1777627796 | 4.44° C | 86% | 1010.8 hPa | 0 mm | - | 0 W/m² | - |
| 1777627195 | 5° C | 84% | 1010.7 hPa | 0 mm | - | 0 W/m² | - |
| 1777626581 | 5.56° C | 82% | 1010.6 hPa | 0 mm | - | 0 W/m² | - |
| 1777625982 | 5.56° C | 81% | 1010.4 hPa | 0 mm | - | 0 W/m² | - |
* Rain latest hour (hover to see other rain measurements)
** Current wind speed in m/s (hover to see current wind gust speed)